Weather History for Cincinnati, OH

Change the Weather History Date:

Monday, December 10, 2012

  Actual Average Record
Temperature  
Mean Temperature 44 °F -  
Max Temperature 55 °F 43 °F 70 °F (1971)
Min Temperature 34 °F 28 °F 3 °F (1958)
Degree Days  
Heating Degree Days 20    
Moisture  
Dew Point 41 °F    
Average Humidity 88    
Maximum Humidity 100    
Minimum Humidity 73    
Precipitation  
Precipitation 0.10 in - - ()
Sea Level Pressure  
Sea Level Pressure 29.78 in    
Wind  
Wind Speed 8 mph (WNW)    
Max Wind Speed 13 mph    
Max Gust Speed 22 mph    
Visibility 10 miles    
Events Rain    
Averages and records for this station are not official NWS values.
T = Trace of Precipitation, MM = Missing Value Source: NWS Daily Summary

Daily Weather History Graph

Daily Weather History Graph

Search for Another Location

Airport:

Trip Planner

Search our weather history database for the weather conditions in past years. The results will help you decide how hot, cold, wet, or windy it might be!

Date:

Astronomy

Dec. 10, 2012 Rise Set
Actual Time 7:46 AM EST 5:15 PM EST
Civil Twilight 7:16 AM EST 5:45 PM EST
Nautical Twilight 6:42 AM EST 6:18 PM EST
Astronomical Twilight 6:10 AM EST 6:50 PM EST
Moon 4:29 AM EST (12/10) 3:03 PM EST (12/10)
Length of Visible Light 10h 28m
Length of Day
9h 28m
Waning Crescent, 10% of the Moon is Illuminated
Dec 10
Waning Crescent
Dec 13
New
Dec 20
First Quarter
Dec 28
Full
Jan 4
Last Quarter

Hourly Weather History & Observations

Time (EST) Temp. Windchill Dew Point Humidity Pressure Visibility Wind Dir Wind Speed Gust Speed Precip Events Conditions
12:53 AM 55.0 °F - 55.0 °F 100% 29.70 in 10.0 mi SW 6.9 mph - 0.10 in Rain Light Rain
1:13 AM 55.4 °F - 55.4 °F 100% 29.71 in 10.0 mi SSW 8.1 mph - 0.00 in   Overcast
1:24 AM 55.4 °F - 55.4 °F 100% 29.71 in 10.0 mi SSW 8.1 mph - 0.00 in Rain Light Rain
1:53 AM 55.0 °F - 55.0 °F 100% 29.71 in 10.0 mi SSW 6.9 mph - 0.00 in   Overcast
2:43 AM 55.4 °F - 55.4 °F 100% 29.70 in 10.0 mi SSW 10.4 mph - N/A   Overcast
2:53 AM 55.9 °F - 55.0 °F 97% 29.70 in 10.0 mi SSW 8.1 mph - N/A   Overcast
3:22 AM 53.6 °F - 53.6 °F 100% 29.71 in 6.0 mi WNW 12.7 mph 21.9 mph 0.00 in Rain Light Rain
3:38 AM 53.6 °F - 51.8 °F 94% 29.71 in 8.0 mi West 9.2 mph - 0.00 in   Overcast
3:53 AM 53.1 °F - 51.1 °F 93% 29.70 in 10.0 mi WNW 6.9 mph - 0.00 in   Overcast
4:53 AM 51.1 °F - 48.9 °F 92% 29.70 in 10.0 mi WNW 6.9 mph - 0.00 in   Overcast
5:17 AM 51.8 °F - 48.2 °F 88% 29.71 in 10.0 mi Variable 4.6 mph - N/A   Overcast
5:53 AM 48.9 °F - 48.0 °F 97% 29.73 in 10.0 mi NNW 4.6 mph - N/A   Overcast
6:53 AM 48.0 °F - 44.1 °F 86% 29.72 in 10.0 mi NW 4.6 mph - N/A   Overcast
7:53 AM 46.0 °F 41.9 °F 43.0 °F 89% 29.74 in 10.0 mi WNW 8.1 mph - N/A   Overcast
8:53 AM 44.1 °F 39.0 °F 42.1 °F 93% 29.75 in 8.0 mi NW 9.2 mph - N/A   Overcast
9:53 AM 43.0 °F 38.2 °F 37.9 °F 82% 29.76 in 10.0 mi NW 8.1 mph - N/A   Overcast
10:41 AM 42.8 °F 38.0 °F 37.4 °F 81% 29.75 in 10.0 mi NW 8.1 mph - N/A   Overcast
10:53 AM 42.1 °F 37.1 °F 37.0 °F 82% 29.75 in 10.0 mi NW 8.1 mph - N/A   Overcast
11:53 AM 42.1 °F 38.4 °F 36.0 °F 79% 29.77 in 10.0 mi WNW 5.8 mph - 0.00 in Rain Light Rain
12:53 PM 42.1 °F 37.7 °F 36.0 °F 79% 29.75 in 10.0 mi NW 6.9 mph - 0.00 in   Overcast
1:53 PM 41.0 °F 35.2 °F 35.1 °F 79% 29.75 in 10.0 mi NW 9.2 mph - 0.00 in   Overcast
2:53 PM 39.0 °F 31.8 °F 33.1 °F 79% 29.77 in 9.0 mi WNW 11.5 mph 18.4 mph N/A   Overcast
3:53 PM 37.0 °F 29.3 °F 33.1 °F 86% 29.79 in 9.0 mi NNW 11.5 mph 16.1 mph N/A   Overcast
4:53 PM 35.1 °F 29.3 °F 30.9 °F 85% 29.83 in 8.0 mi WNW 6.9 mph - 0.00 in   Overcast
5:53 PM 35.1 °F 30.1 °F 30.0 °F 82% 29.83 in 10.0 mi NNW 5.8 mph - N/A   Overcast
6:53 PM 34.0 °F 26.6 °F 28.9 °F 82% 29.86 in 10.0 mi NW 9.2 mph - N/A   Overcast
7:53 PM 34.0 °F 27.2 °F 28.0 °F 79% 29.90 in 10.0 mi WNW 8.1 mph - N/A   Overcast
8:53 PM 34.0 °F 25.5 °F 27.0 °F 75% 29.93 in 10.0 mi NW 11.5 mph 16.1 mph N/A   Overcast
9:53 PM 34.0 °F 28.8 °F 26.1 °F 73% 29.95 in 10.0 mi NW 5.8 mph - N/A   Overcast
10:53 PM 34.0 °F 25.5 °F 28.0 °F 79% 29.97 in 10.0 mi West 11.5 mph 16.1 mph N/A   Overcast
11:53 PM 34.0 °F 27.2 °F 28.9 °F 82% 29.98 in 9.0 mi West 8.1 mph - N/A   Overcast